Regional Weather Roundup
Issued by NWS

Home | Current Version | Previous Version | Text Only | Print | Product List | Glossary On
Versions: 1 2 3 4 5 6 7 8 9 10 11 12 13 14 15 16 17 18 19 20 21 22 23 24 25 26 27 28 29 30 31 32 33 34 35 36 37 38 39 40 41 42 43 44 45 46 47 48 49 50
000
ASUS45 KPSR 211410
RWRAZ

ARIZONA HOURLY REGIONAL WEATHER ROUNDUP
NATIONAL WEATHER SERVICE PHOENIX AZ
700 AM MST TUE FEB 21 2017

NOTE: FAIR INDICATES FEW OR NO CLOUDS BELOW 12,000 FEET WITH NO
SIGNIFICANT WEATHER AND/OR OBSTRUCTIONS TO VISIBILITY.

AZZ001>003-036-211500-
NORTHWEST ARIZONA

CITY           SKY/WX    TMP DP  RH WIND       PRES   REMARKS
BULLHEAD CITY  PTCLDY    55  52  88 E6        30.29S
KINGMAN        PTCLDY    43  38  82 SE3       30.32R
$$

AZZ004>008-015-016-018-211500-
NORTH CENTRAL ARIZONA

CITY           SKY/WX    TMP DP  RH WIND       PRES   REMARKS
GRAND CANYON   PTCLDY    32  32 100 CALM      30.39S
WILLIAMS       CLEAR     30  28  93 S9        30.40S WCI  22
PRESCOTT       PTCLDY    35  34  96 SW3       30.37S
FLAGSTAFF      CLEAR     30  30 100 SW3       30.41R
PAYSON         CLEAR     45  39  81 CALM      30.39R
PAGE           PTCLDY    41  35  79 CALM      30.30S
$$

AZZ009>014-017-211500-
NORTHEAST ARIZONA

CITY           SKY/WX    TMP DP  RH WIND       PRES   REMARKS
WINSLOW        CLEAR     34  33  96 E5        30.39R WCI  30
SAINT JOHNS    CLEAR     27  25  92 W3        30.39R
WINDOW ROCK    CLEAR     27  23  85 CALM      30.42R
SHOW LOW       CLEAR     32  28  86 SE3       30.41S
$$

AZZ023-211500-
GREATER PHOENIX AREA

CITY           SKY/WX    TMP DP  RH WIND       PRES   REMARKS
PHOENIX        CLEAR     52  49  89 E5        30.28R
BUCKEYE        CLEAR     48  48 100 N5        30.30S
GLENDALE       CLEAR     52  50  93 CALM      30.31R
LUKE AFB       CLEAR     50  50 100 N5        30.28S
DEER VALLEY    CLEAR     51  47  86 NE9       30.29R
SCOTTSDALE     CLEAR     51  47  86 CALM      30.27S
MESA-FALCON    CLEAR    N/A N/A N/A N12       30.27R
MESA-GATEWAY   CLEAR     46  46 100 CALM      30.30S
$$

AZZ027-028-211500-
SOUTHWEST MARICOPA COUNTY AND PINAL COUNTY

CITY           SKY/WX    TMP DP  RH WIND       PRES   REMARKS
CASA GRANDE    NOT AVBL
GILA BEND      CLEAR     50  49  93 E5        30.28R
$$

AZZ503-504-507>509-211500-
SOUTHEAST ARIZONA

CITY           SKY/WX    TMP DP  RH WIND       PRES   REMARKS
TUCSON         CLEAR     46  41  82 SE6       30.33R
DAVIS-MONTHAN  CLEAR     45  42  89 SE6       30.32R
RYAN FIELD     CLEAR     43  41  93 S3        30.33R
NOGALES        CLEAR     37  35  92 CALM      30.31S
SIERRA VISTA   CLEAR     45  39  82 CALM      30.35S
DOUGLAS        CLEAR     34  33  96 N8        30.34S WCI  27
SAFFORD        CLEAR     40  38  93 E6        30.32R
$$

AZZ020-021-025-026-031-211500-
SOUTHWEST ARIZONA

CITY           SKY/WX    TMP DP  RH WIND       PRES   REMARKS
YUMA           PTCLDY    56  52  86 N5        30.27R
$$

CAZ031-033-041-043-047-048-061-211500-
SOUTHERN CALIFORNIA

CITY           SKY/WX    TMP DP  RH WIND       PRES   REMARKS
DOWNTOWN L.A.  CLOUDY    59  56  89 CALM      30.29S
L.A. AIRPORT   CLOUDY    59  56  89 CALM      30.29S
SAN DIEGO      MOCLDY    56  50  80 NW3       30.30S
BURBANK        CLOUDY    56  53  90 CALM      30.28S
ONTARIO        MOCLDY    57  53  86 CALM      30.30R
RIVERSIDE      CLOUDY    57  54  89 CALM      30.30R
PALM SPRINGS   PTCLDY    57  54  89 N3        30.28S
EL CENTRO NAS  MOCLDY    48  47  96 W6        30.28R FOG
IMPERIAL       MOCLDY    50  48  93 CALM      30.26S
BLYTHE         CLEAR     52  52 100 N5        30.27S
NEEDLES        MOCLDY    55  50  83 W5        30.28R
$$

NVZ020-UTZ003-211500-
SOUTHERN NEVADA-UTAH

CITY           SKY/WX    TMP DP  RH WIND       PRES   REMARKS
LAS VEGAS      MOCLDY    58  43  57 S7        30.19S
SALT LAKE CITY PTCLDY    52  38  58 S25G35    30.04R
$$

NMZ009-TXZ055-211500-
NEW MEXICO-WEST TEXAS

CITY           SKY/WX    TMP DP  RH WIND       PRES   REMARKS
ALBUQUERQUE    CLOUDY    43  33  68 N7        30.35R
EL PASO        CLEAR     38  29  70 CALM      30.28R
$$


........................KEY........................
SKY/WX - SKY CONDITION/WEATHER
TMP    - TEMPERATURE IN FAHRENHEIT
DP     - DEW POINT IN FAHRENHEIT
RH     - RELATIVE HUMIDITY IN PERCENT
WIND   - DIRECTION AND SPEED IN MILES PER HOUR (MPH)
VRB    - VARIABLE WIND DIRECTION
PRES   - MEAN SEA LEVEL PRESSURE IN INCHES OF MERCURY
         F - FALLING PRESSURE   R - RISING PRESSURE
         S - STEADY PRESSURE
VSB    - VISIBILITY IN MILES
HX     - HEAT INDEX IN FAHRENHEIT
WCI    - WIND CHILL INDEX IN FAHRENHEIT
TC     - TEMPERATURE IN CELSIUS WHICH IS ALSO KNOWN AS
         TEMPERATURE IN CENTIGRADE
AFB    - AIR FORCE BASE
         LUKE AFB IS LUKE AIR FORCE BASE
         DAVIS-MONTHAN IS DAVIS-MONTHAN AIR FORCE BASE
NAS    - NAVAL AIR STATION
         EL CENTRO NAS IS EL CENTRO NAVAL AIR STATION
N/A    - NOT AVAILABLE




USA.gov is the U.S. government's official web portal to all federal, state and local government web resources and services.